Location: Poughquag
(41.6090°N, 73.6820°W)
Time: 11:22:14
(UTC-04:00)

Tiros 1 - Pass Details

Date: 29 May 2020
Orbit: 630 x 664 km, 48.4° (Epoch: 06 July)

Event Time Altitude Azimuth Distance (km) Brightness Sun altitude
Rises 19:35:03 0° 297° (WNW) 2,936 13.2 6.8°
Reaches altitude 10° 19:37:24 10° 295° (WNW) 2,020 13.1 6.4°
Maximum altitude 19:42:01 68° 213° (SSW) 680 7.5 5.6°
Drops below altitude 10° 19:46:35 10° 131° (SE) 2,000 9.1 4.8°
Sets 19:48:53 0° 128° (SE) 2,903 9.8 4.4°
